GLO1031 SBRJ-SBSP

Flight info

Callsign GLO1031
Flight time 0h 52m
Altitude 32000
Route NAXOP UZ45 IBDAL
Aircraft B738/M-SDFGIKLORWXY/LB1

Departure

Time 2026-05-03 23:02
Airport Santos Dumont Airport (SBRJ)

Arrival

Time 2026-05-03 23:54
Airport Congonhas–Deputado Freitas Nobre Airport (SBSP)
Time Latitude Longitude Altitude Speed Heading
2026-05-03 22:44 -22.91209 -43.16579 21 ft 0 kts 267°
2026-05-03 22:49 -22.91208 -43.16569 21 ft 2 kts 266°
2026-05-03 22:49 -22.91207 -43.16551 25 ft 2 kts 266°
2026-05-03 22:50 -22.91205 -43.16533 25 ft 2 kts 245°
2026-05-03 22:50 -22.91194 -43.16520 23 ft 2 kts 202°
2026-05-03 22:50 -22.91179 -43.16516 23 ft 2 kts 184°
2026-05-03 22:50 -22.91174 -43.16516 23 ft 0 kts 180°
2026-05-03 22:56 -22.91199 -43.16514 21 ft 7 kts 176°
2026-05-03 22:56 -22.91256 -43.16510 23 ft 9 kts 176°
2026-05-03 22:56 -22.91315 -43.16507 21 ft 8 kts 177°
2026-05-03 22:56 -22.91371 -43.16503 21 ft 8 kts 177°
2026-05-03 22:57 -22.91421 -43.16482 21 ft 8 kts 140°
2026-05-03 22:57 -22.91462 -43.16443 21 ft 8 kts 134°
2026-05-03 22:57 -22.91501 -43.16401 20 ft 8 kts 137°
2026-05-03 22:57 -22.91524 -43.16378 20 ft 1 kts 137°
2026-05-03 22:58 -22.91529 -43.16373 20 ft 1 kts 138°
2026-05-03 22:58 -22.91534 -43.16368 20 ft 0 kts 139°
2026-05-03 22:58 -22.91537 -43.16365 19 ft 0 kts 139°
2026-05-03 23:00 -22.91558 -43.16346 19 ft 9 kts 139°
2026-05-03 23:00 -22.91608 -43.16297 19 ft 10 kts 137°
2026-05-03 23:00 -22.91647 -43.16250 19 ft 7 kts 84°
2026-05-03 23:00 -22.91627 -43.16243 19 ft 0 kts 354°
2026-05-03 23:01 -22.91529 -43.16252 19 ft 53 kts 355°
2026-05-03 23:01 -22.90821 -43.16299 25 ft 147 kts 356°
2026-05-03 23:02 -22.89617 -43.16349 573 ft 182 kts 358°
2026-05-03 23:02 -22.88369 -43.16180 1769 ft 199 kts 23°
2026-05-03 23:02 -22.87340 -43.15063 2353 ft 224 kts 67°
2026-05-03 23:02 -22.87145 -43.13370 2979 ft 230 kts 99°
2026-05-03 23:03 -22.87381 -43.11631 3714 ft 237 kts 104°
2026-05-03 23:03 -22.87686 -43.09867 4646 ft 239 kts 104°
2026-05-03 23:03 -22.87974 -43.08064 5514 ft 245 kts 103°
2026-05-03 23:03 -22.88164 -43.06860 6156 ft 243 kts 105°
2026-05-03 23:04 -22.88827 -43.05229 7033 ft 236 kts 135°
2026-05-03 23:04 -22.90148 -43.04224 7658 ft 239 kts 163°
2026-05-03 23:04 -22.91822 -43.03751 8050 ft 259 kts 173°
2026-05-03 23:04 -22.93681 -43.03763 8165 ft 274 kts 198°
2026-05-03 23:05 -22.95295 -43.04770 8226 ft 267 kts 219°
2026-05-03 23:05 -22.96721 -43.06060 8201 ft 266 kts 220°
2026-05-03 23:05 -22.98140 -43.07364 8221 ft 269 kts 220°
2026-05-03 23:05 -22.99584 -43.08685 8200 ft 272 kts 220°
2026-05-03 23:06 -23.01015 -43.09982 8200 ft 271 kts 220°
2026-05-03 23:06 -23.02459 -43.11280 8198 ft 268 kts 220°
2026-05-03 23:06 -23.03891 -43.12565 8207 ft 266 kts 220°
2026-05-03 23:06 -23.05322 -43.13847 8201 ft 265 kts 220°
2026-05-03 23:07 -23.06747 -43.15121 8212 ft 265 kts 219°
2026-05-03 23:07 -23.08191 -43.16388 8557 ft 270 kts 219°
2026-05-03 23:07 -23.09677 -43.17680 9419 ft 274 kts 219°
2026-05-03 23:07 -23.11177 -43.18982 10378 ft 277 kts 219°
2026-05-03 23:08 -23.12740 -43.20340 10864 ft 299 kts 219°
2026-05-03 23:08 -23.14416 -43.21800 11100 ft 323 kts 219°
2026-05-03 23:08 -23.16199 -43.23352 11705 ft 331 kts 219°
2026-05-03 23:08 -23.18007 -43.24926 12535 ft 335 kts 219°
2026-05-03 23:09 -23.19840 -43.26524 13315 ft 340 kts 220°
2026-05-03 23:09 -23.21699 -43.28146 14102 ft 345 kts 220°
2026-05-03 23:09 -23.23577 -43.29786 14815 ft 348 kts 220°
2026-05-03 23:09 -23.25477 -43.31445 15496 ft 351 kts 221°
2026-05-03 23:10 -23.27390 -43.33115 16177 ft 354 kts 221°
2026-05-03 23:10 -23.29318 -43.34800 16830 ft 357 kts 221°
2026-05-03 23:10 -23.31238 -43.36478 17477 ft 360 kts 222°
2026-05-03 23:10 -23.33022 -43.38367 18067 ft 358 kts 237°
2026-05-03 23:11 -23.34159 -43.40760 18671 ft 356 kts 253°
2026-05-03 23:11 -23.34812 -43.43365 19235 ft 357 kts 257°
2026-05-03 23:11 -23.35412 -43.46003 19776 ft 359 kts 257°
2026-05-03 23:11 -23.36008 -43.48657 20322 ft 362 kts 258°
2026-05-03 23:12 -23.36611 -43.51323 20845 ft 364 kts 257°
2026-05-03 23:12 -23.37218 -43.53975 21390 ft 366 kts 257°
2026-05-03 23:12 -23.37839 -43.56659 22071 ft 363 kts 257°
2026-05-03 23:12 -23.38456 -43.59311 22880 ft 359 kts 258°
2026-05-03 23:13 -23.39069 -43.61938 23657 ft 356 kts 258°
2026-05-03 23:13 -23.39677 -43.64544 24250 ft 354 kts 258°
2026-05-03 23:13 -23.40282 -43.67138 24803 ft 353 kts 258°
2026-05-03 23:13 -23.40886 -43.69727 25386 ft 351 kts 258°
2026-05-03 23:14 -23.41477 -43.72264 25990 ft 349 kts 258°
2026-05-03 23:14 -23.42072 -43.74821 26554 ft 347 kts 258°
2026-05-03 23:14 -23.42664 -43.77365 27152 ft 345 kts 259°
2026-05-03 23:14 -23.43251 -43.79889 27752 ft 343 kts 259°
2026-05-03 23:15 -23.43835 -43.82404 28183 ft 343 kts 259°
2026-05-03 23:15 -23.44995 -43.87406 28214 ft 341 kts 259°
2026-05-03 23:16 -23.46158 -43.92428 28223 ft 341 kts 259°
2026-05-03 23:16 -23.47310 -43.97424 28234 ft 342 kts 259°
2026-05-03 23:17 -23.48464 -44.02451 28228 ft 342 kts 259°
2026-05-03 23:17 -23.49618 -44.07479 28227 ft 341 kts 259°
2026-05-03 23:18 -23.50762 -44.12470 28225 ft 341 kts 259°
2026-05-03 23:18 -23.51911 -44.17490 28224 ft 341 kts 259°
2026-05-03 23:19 -23.53064 -44.22509 28219 ft 340 kts 259°
2026-05-03 23:19 -23.54203 -44.27472 28227 ft 339 kts 259°
2026-05-03 23:20 -23.55344 -44.32458 28221 ft 339 kts 259°
2026-05-03 23:20 -23.56481 -44.37431 28227 ft 338 kts 259°
2026-05-03 23:21 -23.57616 -44.42406 28221 ft 337 kts 259°
2026-05-03 23:21 -23.58745 -44.47365 28228 ft 337 kts 259°
2026-05-03 23:22 -23.60436 -44.54802 28226 ft 337 kts 259°
2026-05-03 23:22 -23.61554 -44.59731 28226 ft 337 kts 259°
2026-05-03 23:23 -23.62680 -44.64699 28228 ft 337 kts 259°
2026-05-03 23:23 -23.63803 -44.69662 28226 ft 336 kts 259°
2026-05-03 23:24 -23.64922 -44.74616 28226 ft 336 kts 259°
2026-05-03 23:24 -23.66031 -44.79537 28227 ft 336 kts 259°
2026-05-03 23:25 -23.67144 -44.84477 28228 ft 335 kts 259°
2026-05-03 23:25 -23.68254 -44.89416 28229 ft 334 kts 259°
2026-05-03 23:26 -23.69359 -44.94341 28229 ft 334 kts 259°
2026-05-03 23:26 -23.70454 -44.99227 28229 ft 333 kts 259°
2026-05-03 23:27 -23.71554 -45.04143 28229 ft 333 kts 259°
2026-05-03 23:27 -23.72653 -45.09064 28231 ft 333 kts 259°
2026-05-03 23:28 -23.73746 -45.13968 28233 ft 332 kts 260°
2026-05-03 23:28 -23.74837 -45.18864 28231 ft 332 kts 260°
2026-05-03 23:29 -23.75919 -45.23729 28233 ft 332 kts 259°
2026-05-03 23:29 -23.77008 -45.28625 28197 ft 332 kts 259°
2026-05-03 23:30 -23.77556 -45.31085 27836 ft 330 kts 259°
2026-05-03 23:30 -23.78095 -45.33502 27449 ft 326 kts 259°
2026-05-03 23:30 -23.78620 -45.35863 27067 ft 321 kts 259°
2026-05-03 23:30 -23.79151 -45.38252 26653 ft 317 kts 259°
2026-05-03 23:31 -23.79655 -45.40548 26273 ft 312 kts 260°
2026-05-03 23:31 -23.79959 -45.42868 25979 ft 305 kts 266°
2026-05-03 23:31 -23.80089 -45.45174 25699 ft 306 kts 268°
2026-05-03 23:31 -23.80180 -45.47534 25410 ft 316 kts 268°
2026-05-03 23:32 -23.80269 -45.49949 25079 ft 319 kts 268°
2026-05-03 23:32 -23.80366 -45.52367 24782 ft 317 kts 268°
2026-05-03 23:32 -23.80470 -45.54738 24464 ft 315 kts 267°
2026-05-03 23:32 -23.80581 -45.57118 24161 ft 313 kts 267°
2026-05-03 23:33 -23.80695 -45.59490 23854 ft 312 kts 267°
2026-05-03 23:33 -23.80812 -45.61848 23507 ft 310 kts 267°
2026-05-03 23:33 -23.80929 -45.64189 23188 ft 307 kts 267°
2026-05-03 23:33 -23.81046 -45.66515 22875 ft 305 kts 267°
2026-05-03 23:34 -23.81162 -45.68821 22580 ft 303 kts 267°
2026-05-03 23:34 -23.81278 -45.71115 22292 ft 302 kts 267°
2026-05-03 23:34 -23.81393 -45.73407 21999 ft 301 kts 267°
2026-05-03 23:34 -23.81508 -45.75698 21710 ft 302 kts 267°
2026-05-03 23:35 -23.81622 -45.77986 21420 ft 302 kts 267°
2026-05-03 23:35 -23.81736 -45.80257 21135 ft 303 kts 267°
2026-05-03 23:35 -23.81851 -45.82561 20852 ft 304 kts 267°
2026-05-03 23:35 -23.81966 -45.84873 20550 ft 306 kts 267°
2026-05-03 23:36 -23.82080 -45.87196 20256 ft 306 kts 267°
2026-05-03 23:36 -23.82195 -45.89520 19955 ft 307 kts 267°
2026-05-03 23:36 -23.82305 -45.91751 19674 ft 306 kts 267°
2026-05-03 23:36 -23.82419 -45.94076 19380 ft 306 kts 267°
2026-05-03 23:37 -23.82532 -45.96390 19080 ft 305 kts 267°
2026-05-03 23:37 -23.82645 -45.98706 18790 ft 304 kts 267°
2026-05-03 23:37 -23.82757 -46.01011 18475 ft 304 kts 267°
2026-05-03 23:37 -23.82868 -46.03314 18148 ft 303 kts 267°
2026-05-03 23:38 -23.82978 -46.05579 17842 ft 301 kts 267°
2026-05-03 23:38 -23.83088 -46.07859 17546 ft 300 kts 267°
2026-05-03 23:38 -23.83196 -46.10128 17252 ft 298 kts 267°
2026-05-03 23:38 -23.83305 -46.12386 16966 ft 298 kts 267°
2026-05-03 23:39 -23.83413 -46.14647 16681 ft 297 kts 267°
2026-05-03 23:39 -23.83520 -46.16905 16394 ft 297 kts 267°
2026-05-03 23:39 -23.83627 -46.19157 16112 ft 297 kts 267°
2026-05-03 23:39 -23.83733 -46.21411 15817 ft 297 kts 266°
2026-05-03 23:40 -23.83841 -46.23662 15538 ft 296 kts 266°
2026-05-03 23:40 -23.83946 -46.25889 15271 ft 298 kts 267°
2026-05-03 23:40 -23.84051 -46.28160 14975 ft 301 kts 266°
2026-05-03 23:40 -23.84160 -46.30446 14678 ft 302 kts 266°
2026-05-03 23:41 -23.84270 -46.32738 14394 ft 302 kts 266°
2026-05-03 23:41 -23.84378 -46.35037 14098 ft 303 kts 266°
2026-05-03 23:41 -23.84486 -46.37331 13787 ft 303 kts 266°
2026-05-03 23:41 -23.84593 -46.39628 13466 ft 302 kts 266°
2026-05-03 23:42 -23.84699 -46.41908 13165 ft 298 kts 266°
2026-05-03 23:42 -23.84803 -46.44152 12864 ft 293 kts 266°
2026-05-03 23:42 -23.84902 -46.46243 12608 ft 290 kts 266°
2026-05-03 23:42 -23.85002 -46.48437 12334 ft 289 kts 266°
2026-05-03 23:43 -23.85103 -46.50636 12069 ft 289 kts 266°
2026-05-03 23:43 -23.85203 -46.52832 11793 ft 291 kts 266°
2026-05-03 23:43 -23.85304 -46.55019 11501 ft 291 kts 266°
2026-05-03 23:43 -23.85404 -46.57229 11224 ft 290 kts 266°
2026-05-03 23:44 -23.85503 -46.59429 10944 ft 290 kts 266°
2026-05-03 23:44 -23.85271 -46.61609 10645 ft 290 kts 289°
2026-05-03 23:44 -23.84224 -46.63428 10390 ft 286 kts 311°
2026-05-03 23:44 -23.82670 -46.64765 10123 ft 283 kts 326°
2026-05-03 23:45 -23.81009 -46.65885 9823 ft 279 kts 326°
2026-05-03 23:45 -23.79365 -46.66994 9545 ft 277 kts 326°
2026-05-03 23:45 -23.77731 -46.68111 9345 ft 277 kts 326°
2026-05-03 23:45 -23.76078 -46.69247 9317 ft 282 kts 326°
2026-05-03 23:46 -23.74420 -46.70394 9290 ft 280 kts 326°
2026-05-03 23:46 -23.72787 -46.71525 9285 ft 277 kts 326°
2026-05-03 23:46 -23.71152 -46.72660 9124 ft 281 kts 326°
2026-05-03 23:46 -23.69509 -46.73799 8806 ft 283 kts 326°
2026-05-03 23:47 -23.67858 -46.74944 8482 ft 279 kts 326°
2026-05-03 23:47 -23.66208 -46.76089 7963 ft 279 kts 327°
2026-05-03 23:47 -23.64601 -46.77203 7594 ft 268 kts 327°
2026-05-03 23:47 -23.63062 -46.78270 7293 ft 256 kts 328°
2026-05-03 23:48 -23.61595 -46.79285 7011 ft 245 kts 328°
2026-05-03 23:48 -23.60199 -46.80252 6791 ft 230 kts 328°
2026-05-03 23:48 -23.58909 -46.81146 6534 ft 216 kts 328°
2026-05-03 23:48 -23.57579 -46.81787 6260 ft 205 kts 356°
2026-05-03 23:49 -23.56237 -46.81496 6095 ft 196 kts 31°
2026-05-03 23:49 -23.55214 -46.80555 5895 ft 194 kts 55°
2026-05-03 23:49 -23.54480 -46.79330 5716 ft 191 kts 60°
2026-05-03 23:49 -23.53772 -46.78117 5486 ft 187 kts 60°
2026-05-03 23:50 -23.53084 -46.76942 5277 ft 181 kts 60°
2026-05-03 23:50 -23.52638 -46.76183 5141 ft 177 kts 61°
2026-05-03 23:50 -23.51921 -46.74637 4836 ft 165 kts 86°
2026-05-03 23:50 -23.51967 -46.73815 4797 ft 166 kts 105°
2026-05-03 23:51 -23.52512 -46.72764 4693 ft 155 kts 136°
2026-05-03 23:51 -23.53672 -46.71935 4567 ft 146 kts 144°
2026-05-03 23:51 -23.54231 -46.71528 4452 ft 138 kts 145°
2026-05-03 23:51 -23.55020 -46.70969 4266 ft 133 kts 146°
2026-05-03 23:52 -23.55781 -46.70439 4105 ft 131 kts 146°
2026-05-03 23:52 -23.56552 -46.69901 3966 ft 133 kts 146°
2026-05-03 23:52 -23.57332 -46.69358 3798 ft 133 kts 146°
2026-05-03 23:52 -23.58108 -46.68817 3626 ft 132 kts 146°
2026-05-03 23:53 -23.58882 -46.68279 3442 ft 131 kts 147°
2026-05-03 23:53 -23.59653 -46.67742 3255 ft 132 kts 147°
2026-05-03 23:53 -23.60423 -46.67206 3071 ft 131 kts 147°
2026-05-03 23:53 -23.61190 -46.66674 2875 ft 131 kts 147°
2026-05-03 23:54 -23.61967 -46.66133 2639 ft 132 kts 148°
2026-05-03 23:54 -23.62682 -46.65636 2605 ft 102 kts 147°
2026-05-03 23:54 -23.63104 -46.65345 2609 ft 41 kts 148°
2026-05-03 23:54 -23.63287 -46.65217 2608 ft 16 kts 148°
2026-05-03 23:55 -23.63398 -46.65216 2603 ft 15 kts 229°
2026-05-03 23:55 -23.63351 -46.65316 2601 ft 17 kts 327°
2026-05-03 23:55 -23.63256 -46.65382 2601 ft 15 kts 328°
2026-05-03 23:55 -23.63171 -46.65440 2602 ft 14 kts 326°
2026-05-03 23:56 -23.63089 -46.65497 2601 ft 14 kts 328°
2026-05-03 23:56 -23.63002 -46.65526 2602 ft 13 kts 348°
2026-05-03 23:56 -23.62928 -46.65573 2602 ft 11 kts 327°
2026-05-03 23:56 -23.62863 -46.65618 2602 ft 11 kts 326°
2026-05-03 23:57 -23.62798 -46.65663 2602 ft 11 kts 327°
2026-05-03 23:57 -23.62726 -46.65713 2602 ft 13 kts 328°
2026-05-03 23:57 -23.62683 -46.65763 2600 ft 9 kts 253°
2026-05-03 23:57 -23.62711 -46.65812 2600 ft 1 kts 236°
2026-05-03 23:58 -23.62717 -46.65821 2600 ft 0 kts 235°
2026-05-03 23:58 -23.62718 -46.65822 2600 ft 0 kts 235°